Lid_Strength_Index
5 4 4 4 4 3 7 13 17 10 9 14 16 19 16 9 10 8 9 9 12 14 14 15 13 14 13 12 13 16 14 15 16 15 11 10 11 13 13 17 18 17 19 20
4 4 4 4 3 3 10 14 13 8 9 16 15 13 11 10 10 10 10 11 10 10 13 15 13 13 10 11 13 15 14 16 18 16 13 11 13 12 12 13 14 18 19 18
4 4 4 3 2 2 9 12 15 10 10 11 15 14 13 12 8 9 9 10 10 12 13 12 14 14 11 11 12 10 11 14 17 20 19 16 16 14 13 14 17 16 17 16
3 4 3 2 1 1 9 12 13 11 14 12 13 13 12 12 12 9 8 10 11 13 14 14 14 13 12 11 10 11 13 19 17 17 17 16 15 17 16 16 17 16 17 18
3 3 2 1 2 2 9 11 11 11 12 12 14 12 13 12 11 10 11 12 10 12 16 15 16 13 13 15 13 15 14 23 19 20 16 16 16 19 18 21 22 19 18 22
2 2 2 1 1 2 7 8 7 9 11 13 14 13 12 11 10 9 8 9 11 12 10 11 11 11 11 12 16 16 17 23 22 24 18 17 20 22 20 22 22 22 25 23
2 1 2 1 1 2 6 7 6 11 13 12 11 11 10 10 9 10 8 7 10 9 8 9 10 12 11 12 12 12 18 18 18 23 20 26 22 20 19 22 22 21 22 22
1 1 1 1 1 1 6 6 5 10 14 11 11 11 10 10 10 10 9 8 8 9 10 12 14 15 14 12 11 12 12 14 21 23 21 22 22 21 23 24 24 20 21 21
1 1 1 1 1 1 5 6 3 6 13 13 10 10 10 12 13 10 9 7 8 9 9 13 19 19 16 16 13 11 11 12 14 19 25 23 22 20 18 19 25 20 20 21
2 1 1 1 1 0 5 6 3 6 11 10 10 12 13 12 13 11 9 9 9 9 12 14 17 19 16 19 18 18 17 20 19 18 19 20 19 18 16 24 24 19 19 20
1 1 1 1 1 0 4 6 2 7 13 11 10 7 11 11 10 14 11 11 11 10 15 15 17 20 19 18 18 20 21 24 23 19 21 23 16 16 21 19 17 17 18 18
1 1 1 1 1 0 3 8 4 2 6 9 6 5 3 5 7 8 9 10 11 9 13 14 15 14 17 20 22 18 21 23 23 23 23 16 15 16 15 15 16 17 17 16
1 1 1 1 1 0 2 7 6 4 8 9 10 9 6 5 5 5 11 9 8 10 10 14 13 16 14 16 19 20 19 19 23 20 18 18 16 14 14 14 15 15 15 15
1 1 1 1 1 0 1 6 5 6 7 11 11 7 7 6 6 6 6 6 6 7 6 14 14 15 13 19 17 19 20 18 23 22 21 18 16 17 16 16 14 15 14 15
1 1 1 1 1 1 3 5 4 3 7 12 11 9 8 8 7 7 7 7 10 11 13 13 15 13 14 16 17 21 19 21 22 24 20 20 19 20 16 18 17 17 15 16
1 1 1 1 1 1 5 7 4 3 4 11 14 7 9 9 9 9 9 9 11 16 17 16 17 13 14 21 23 19 17 17 19 20 20 20 18 20 20 21 19 18 18 18
1 1 1 0 0 4 6 8 6 2 4 8 12 12 10 10 10 10 11 12 18 16 22 18 17 17 15 22 24 18 17 17 18 17 19 19 19 19 18 21 19 18 20 21
1 1 1 1 1 1 4 5 2 3 6 9 16 15 13 11 13 14 9 18 18 16 22 19 19 16 17 23 20 19 17 16 16 17 18 18 17 17 17 18 19 18 20 19
2 2 1 3 5 6 7 2 4 6 7 15 16 17 17 12 12 11 12 12 16 15 20 21 16 19 22 20 19 18 18 20 19 19 16 16 16 15 15 16 17 19 18 18
4 6 7 10 9 3 1 6 9 10 10 11 15 14 17 14 14 14 14 14 17 22 20 17 23 24 21 20 19 18 18 18 17 19 17 16 16 15 16 16 16 15 15 15
9 11 11 8 5 8 10 13 15 14 18 14 15 15 17 12 18 16 14 18 17 23 18 20 25 25 20 17 17 15 14 13 14 14 14 14 15 15 15 15 14 14 14 15
7 8 8 9 11 14 17 20 14 17 18 14 15 15 14 13 11 14 16 18 18 25 16 22 27 21 19 16 15 15 14 14 14 14 15 15 14 14 15 14 14 15 14 14
9 12 18 16 17 19 20 20 19 18 14 14 15 17 14 12 12 16 16 20 22 16 23 24 23 18 16 15 14 14 14 14 14 15 14 15 15 15 15 15 14 15 15 14
17 21 21 22 20 17 17 17 16 13 13 14 14 15 15 14 16 16 20 18 18 25 26 26 22 19 16 14 14 14 15 14 15 15 15 15 15 15 16 15 15 16 16 14
22 19 22 18 14 14 14 13 14 13 13 13 15 14 15 17 18 17 18 22 24 22 23 20 17 16 15 15 15 15 15 14 15 15 16 16 15 16 17 16 16 16 15 15
21 18 18 14 16 17 16 17 18 13 14 13 14 19 21 21 19 21 22 23 24 21 18 16 16 16 16 16 15 15 14 14 14 14 15 14 14 16 16 16 15 16 16 17
21 20 14 15 17 20 18 17 16 15 17 21 19 24 22 18 22 22 19 22 19 16 16 15 14 15 15 15 15 15 14 14 14 14 14 14 14 16 16 17 15 15 15 17